Orbital Elements at Epoch 2459200.5 (2020-Dec-17.0) TDB
Reference: JPL 20 (heliocentric ecliptic J2000)
Element | Value | Uncertainty (1-sigma) | Units |
e | .07824020708912545 | 6.6148e-08 | |
a | 1.901770645993447 | 5.5504e-09 | au |
q | 1.7529757168149 | 1.276e-07 | au |
i | 23.94261629176313 | 6.9737e-06 | deg |
node | 175.1966317391705 | 9.2547e-06 | deg |
peri | 327.1986265256165 | 3.1686e-05 | deg |
M | 27.60072329696386 | 2.9592e-05 | deg |
tp | 2459127.056460489046 (2020-Oct-04.55646049) | 7.8711e-05 | TDB |
period | 957.934106996819 2.62 | 4.1937e-06 1.148e-08 | d yr |
n | .3758087298181935 | 1.6452e-09 | deg/d |
Q | 2.050565575171994 | 5.9847e-09 | au |
|
| | Orbit Determination Parameters
Additional Information
|